Regional Weather Roundup
Issued by NWS

Home | Current Version | Previous Version | Text Only | Print | Product List | Glossary On
Versions: 1 2 3 4 5 6 7 8 9 10 11 12 13 14 15 16 17 18 19 20 21 22 23 24 25 26 27 28 29 30 31 32 33 34 35 36 37 38 39 40 41 42 43 44 45 46 47 48 49 50
000
ASUS43 KMKX 272121
RWRWI

WISCONSIN REGIONAL WEATHER ROUNDUP
NATIONAL WEATHER SERVICE MILWAUKEE/SULLIVAN WI
400 PM CDT SAT AUG 27 2016

NOTE: "FAIR" INDICATES FEW OR NO CLOUDS BELOW 12,000 FEET WITH NO
SIGNIFICANT WEATHER AND/OR OBSTRUCTIONS TO VISIBILITY.

WIZ001-002-006>008-014>016-023>028-272200-
NORTHWEST WISCONSIN

CITY           SKY/WX    TMP DP  RH WIND       PRES   REMARKS
SUPERIOR ARPT  PTSUNNY   67  60  79 E8        30.01F
ASHLAND        LGT RAIN  65  62  90 NE7       30.04F
HAYWARD        LGT RAIN  63  60  90 CALM      30.04S
SIREN          CLOUDY    62  60  93 CALM      30.02S
CUMBERLAND     CLOUDY    63  59  88 CALM      30.02S
RICE LAKE      LGT RAIN  65  61  87 S6        30.03S
CHETEK         NOT AVBL
LADYSMITH      CLOUDY    69  59  69 E5        30.03S
EAU CLAIRE     CLOUDY    65  63  93 S7        30.01S
MENOMONIE      CLOUDY    66  64  91 SE6       30.01F
NEW RICHMOND   CLOUDY    65  59  80 SE6       30.01F
OSCEOLA        CLOUDY    66  60  82 SE7       30.03S
$$

WIZ003>005-009-010-017-018-272200-
NORTH CENTRAL WISCONSIN

CITY           SKY/WX    TMP DP  RH WIND       PRES   REMARKS
MANITOWISH WTR NOT AVBL
ARBOR VITAE    CLOUDY    69  59  69 SE5       30.05F
WOODRUFF       CLOUDY    69  59  69 SE5       30.05F
RHINELANDER    CLOUDY    67  59  75 SE5       30.06S
EAGLE RIVER    CLOUDY    66  55  66 CALM      30.05F
LAND O LAKES   CLOUDY    67  56  67 S6        30.07S
PHILLIPS       CLOUDY    67  59  74 E5        30.03F
TOMAHAWK       CLOUDY    67  58  71 CALM      30.05S
MEDFORD        CLOUDY    64  60  88 SE5       30.04F
MERRILL        CLOUDY    65  61  85 S5        30.05S
$$

WIZ029-030-035-036-043>047-272200-
CENTRAL WISCONSIN

CITY           SKY/WX    TMP DP  RH WIND       PRES   REMARKS
WAUSAU         CLOUDY    64  59  83 E8        30.03F
MOSINEE        CLOUDY    64  61  88 E6        30.05F
MARSHFIELD     CLOUDY    66  60  81 E6        30.03F
STEVENS POINT  CLOUDY    63  60  90 SE6       30.05S
WAUPACA        CLOUDY    67  65  93 CALM      30.04S FOG
WAUTOMA        CLOUDY    64  63  96 E6        30.04S FOG
WISC RAPIDS    CLOUDY    66  63  90 SE7       30.04F
CAMP DOUGLAS   CLOUDY    66  64  94 E6        30.03S
$$

WIZ011>013-019>022-031-037>040-048>050-272200-
NORTHEAST WISCONSIN

CITY           SKY/WX    TMP DP  RH WIND       PRES   REMARKS
ANTIGO         CLOUDY    63  60  92 SE3       30.06F
SHAWANO        CLOUDY    68  62  81 E5        30.05S
OCONTO         NOT AVBL
STURGEON BAY   CLOUDY    65  61  87 NE5       30.05F
GREEN BAY      CLOUDY    66  64  93 NE7       30.03F
MANITOWOC      LGT RAIN  65  63  93 N5        30.03S FOG
APPLETON       CLOUDY    64  64 100 NE5       30.02S FOG
CLINTONVILLE   CLOUDY    64  61  88 NE5       30.03F
OSHKOSH        CLOUDY    66  64  93 NE6       30.02S
$$

WIZ032>034-041-042-053>061-272200-
SOUTHWEST WISCONSIN

CITY           SKY/WX    TMP DP  RH WIND       PRES   REMARKS
LA CROSSE      CLOUDY    71  65  81 S3        30.00S
SPARTA         CLOUDY    67  63  87 E5        30.03S
VIROQUA        CLOUDY    67  65  92 SW3       30.03S
BOSCOBEL       CLOUDY    71  66  84 VRB3      30.01F
PRAIRIE DU CHI CLOUDY    72  66  81 SW5       30.01S
PLATTEVILLE    CLOUDY    75  71  89 W8        30.02S
$$

WIZ056-057-062-063-064-067-068-272200-
SOUTH CENTRAL WISCONSIN

CITY           SKY/WX    TMP DP  RH WIND       PRES   REMARKS
REEDSBURG      NOT AVBL
BARABOO/DELLS  DRIZZLE   65  63  93 CALM      30.03S
LONE ROCK      CLOUDY    69  66  90 CALM      30.02S
MINERAL POINT  CLOUDY    75  70  83 SW8       30.02S
MADISON        CLOUDY    74  68  81 CALM      30.00S
MIDDLETON      CLOUDY    74  70  88 CALM      30.01F
WATERTOWN      CLOUDY    76  71  85 SW5       30.00F
MONROE         PTSUNNY   79  68  69 SW9       30.00S HX  81
JANESVILLE     PTSUNNY   81  70  69 SW8       29.99S HX  84
$$

WIZ051-052-058>065-066-070>072-272200-
SOUTHEAST WISCONSIN

CITY           SKY/WX    TMP DP  RH WIND       PRES   REMARKS
MILWAUKEE      CLOUDY    77  70  79 NE8       29.99F
WAUKESHA       PTSUNNY   72  66  83 CALM      30.01F
MILWAUKEE/TIMM CLOUDY    75  66  73 E5        30.01F
RACINE         PTSUNNY   77  70  79 SE7       30.01F
BURLINGTON     CLOUDY    78  68  70 SW7       30.00F HX  80
KENOSHA        CLOUDY    80  70  71 SW8       30.01F HX  83
FOND DU LAC    CLOUDY    70  65  84 N6        30.01F
SHEBOYGAN      LGT RAIN  70  66  87 CALM      30.01F
WEST BEND      CLOUDY    72  68  88 SW3       30.01F
JUNEAU         CLOUDY    73  68  84 SE6       30.02F
$$

LSZ147-162-272200-
LAKE SUPERIOR

STATION/POSITION TIME  TEMP    WIND        PRES    WAVE
                       AIR SEA DIR/SP/G            HT/PER
                 (UTC) (F)     (DEG/KT/KT) (MB)    (FT/S)
W MID LAKE BUOY  2050   66 67   70/  8/ 10 1017.0F   1
DEVILS ISLAND    2100   65      70/  9/ 10 1017.1F
PORT WING        2040   68      60/  3/  5 1016.9F
SAXON HARBOR     2040   67      80/  3/  5 1016.9F
$$

LMZ867-665-643>646-272200-
LAKE MICHIGAN

STATION/POSITION TIME  TEMP    WIND        PRES    WAVE
                       AIR SEA DIR/SP/G            HT/PER
                 (UTC) (F)     (DEG/KT/KT) (MB)    (FT/S)
CHAMBERS ISLAND  2000   64      50/  4/  7 1017.9F
N MID LAKE BUOY  2050   64 70   80/  8/ 10 1017.0F   1/ 3
NORTHPORT PIER   2000   64      80/  5/  7 1017.9F
SISTER BAY       2007   66     120/  6/  9   N/A
KEWAUNEE LAKESHO 2000   62      10/  3/  6 1016.8F
SHEBOYGAN LAKESH 2100   60      10/  8/  9 1016.1F
PORT WASHINGTON  2000   66      40/  6/  8 1017.3F
ATWATER BUOY     2100   65      10/  4/  6   N/A
MILWAUKEE LAKESH 2010   67      30/  4/  4   N/A
S MID LAKE BUOY  2050   75 75  170/ 12/ 16 1015.9F   2/ 4
KENOSHA   LAKESH 2100   69     170/ 10/ 12 1015.6F
$$

TC  - TEMPERATURE IN CELSIUS
VSB - VISIBILITY IN STATUTE MILES
WCI - WIND CHILL INDEX
HX  - HEAT INDEX




USA.gov is the U.S. government's official web portal to all federal, state and local government web resources and services.